Location: Fort Wayne
(41.1310°N, 85.1290°W)
Time: 23:30:56
(UTC-05:00)

Daily predictions for brighter satellites

Satellite Brightness Start Highest point End
(mag) Time Altitude Azimuth Time Altitude Azimuth Time Altitude Azimuth
CORIOLIS 4.2 18:10:49 10° SSE 18:16:10 83° ENE 18:21:33 10° NNW
Cosmos 1980 3.7 18:10:32 10° SSW 18:16:12 81° ESE 18:21:55 10° NNE
Abrixas 2.4 18:13:20 10° WSW 18:16:16 83° NNW 18:19:12 10° ENE
Cosmos 1634 Rocket 4.0 18:10:53 10° N 18:17:05 78° E 18:23:14 10° S
BREEZE-M DEB (TANK) 4.5 18:15:48 10° WNW 18:19:55 43° SW 18:25:34 10° SSE
IDEFIX/ARIANE 42P 3.1 18:15:52 10° S 18:21:02 67° WSW 18:26:17 10° NNW
Meteor 1-11 4.4 18:16:15 10° SSE 18:21:44 52° E 18:27:19 10° NNE
Lacrosse 5 rocket 1.1 18:20:28 10° NW 18:24:15 75° NE 18:28:13 10° SE
Cosmos 44 Rocket 4.2 18:19:40 10° SW 18:24:38 49° NW 18:29:32 10° NNE
Aureole 2 Rocket 2.7 18:23:12 10° S 18:26:53 62° ESE 18:30:53 10° NNE
MSX 3.9 18:24:14 10° SSE 18:29:57 85° WSW 18:35:43 10° NNW
BREEZE-M DEB (TANK) 2.3 18:28:36 10° SW 18:31:06 46° SE 18:33:03 14° ENE
Cosmos 372 Rocket 3.9 18:26:56 10° NNW 18:32:04 79° ENE 18:37:09 10° SSE
USA 116 4.5 18:30:54 10° N 18:33:52 40° WNW 18:36:48 10° SW
Cosmos 1626 3.2 18:31:01 10° SE 18:34:07 25° E 18:37:13 10° NE
Cosmos 2219 Rocket 3.2 18:29:33 10° SW 18:34:58 48° WNW 18:40:25 10° NNE
OTV 4 3.4 18:33:34 10° WSW 18:35:13 14° SSW 18:36:52 10° S
Timation 1 Rocket 4.4 18:29:55 10° NNW 18:35:52 58° ENE 18:41:46 10° SE
Cosmos 1707 Rocket 4.2 18:32:45 10° NNE 18:36:39 32° ENE 18:40:32 10° SE
Cosmos 540 Rocket 3.7 18:31:42 10° SSW 18:36:52 76° WNW 18:42:03 10° NNE
YAOGAN 1 3.4 18:32:37 10° S 18:36:52 57° W 18:41:09 10° NNW
Cosmos 1328 4.3 18:33:10 10° SSW 18:37:03 61° W 18:40:59 10° N
Cosmos 2333 Rocket 2.8 18:32:10 10° SW 18:37:42 58° WNW 18:43:19 10° NNE
COSMO-SKYMED 1 2.6 18:33:43 10° NNE 18:38:01 60° E 18:42:18 10° S
Cosmos 304 Rocket 3.9 18:34:04 10° S 18:38:45 55° ESE 18:43:27 10° NNE
BREEZE M DEB (TANK) 1.6 18:36:50 10° NW 18:39:35 44° NNE 18:40:57 18° E
USA 215 3.6 18:38:15 10° E 18:44:25 45° NNE 18:50:35 10° NW
Cosmos 2151 3.3 18:41:07 10° SSW 18:45:17 69° W 18:49:30 10° N
CZ-4 R/B 3.7 18:43:27 10° SSW 18:46:46 27° W 18:50:07 10° NW
Cosmos 1666 Rocket 4.1 18:43:15 10° SSE 18:47:11 35° E 18:51:11 10° NNE
Cosmos 2278 Rocket 2.8 18:42:13 10° NNW 18:47:50 63° WSW 18:53:25 10° S
Cosmos 1726 3.2 18:45:23 10° NNW 18:49:02 49° W 18:52:41 10° S
Cosmos 1455 2.9 18:47:36 10° NNE 18:51:02 31° ENE 18:54:27 10° SE
Resurs 01 Rocket 2.9 18:49:19 15° E 18:51:17 20° ENE 18:54:29 10° NNE
Cosmos 1703 3.2 18:49:47 10° S 18:53:37 60° E 18:57:28 10° NNE
SJ-6B 3.5 18:50:19 10° SE 18:54:02 35° ENE 18:57:49 10° N
Lacrosse 5 4.0 18:54:07 10° NNW 18:56:28 13° N 18:58:47 10° NNE
Cosmos 1900 4.2 18:57:05 10° NNW 19:02:04 75° ENE 19:07:04 10° SE
Cosmos 2279 Rocket 4.2 18:58:20 10° N 19:04:33 78° W 19:10:46 10° S
Cosmos 2237 Rocket 3.4 19:06:31 10° SW 19:11:47 40° WNW 19:17:06 10° N
Cosmos 2369 Rocket 3.6 19:12:01 10° N 19:15:08 18° NE 19:15:08 18° NE
Lacrosse 4 Rocket 1.8 19:14:35 10° NNW 19:18:23 37° ENE 19:18:28 37° ENE
SL-16 R/B 2.3 19:13:38 10° SSW 19:19:17 79° WNW 19:24:59 10° NNE
Cosmos 1470 Rocket 4.4 19:16:17 10° SSE 19:19:23 30° ESE 19:19:23 30° ESE
Cosmos 1340 Rocket 4.1 19:17:21 10° SSW 19:21:04 41° WNW 19:24:48 10° N
Cosmos 2242 Rocket 3.6 19:18:40 10° N 19:23:01 52° E 19:27:20 10° SSE
Nadezhda 4 Rocket 3.9 19:17:45 10° S 19:24:00 80° E 19:30:20 10° N
ALOS 2.5 19:19:58 10° SE 19:24:25 46° ENE 19:28:53 10° N
Cosmos 1805 Rocket 4.2 19:21:07 10° SSW 19:25:30 57° W 19:29:55 10° N
USA 229 DEB 3.7 19:19:00 10° SSW 19:25:41 60° ESE 19:29:43 26° NE
USA 229 3.7 19:19:06 10° SSW 19:25:47 60° ESE 19:29:47 26° NE
Spot 2 Rocket 3.7 19:21:44 10° SE 19:26:31 45° ENE 19:31:19 10° N
Cosmos 1184 Rocket 2.7 19:23:22 10° S 19:26:43 89° ESE 19:27:44 43° N
Cosmos 2026 Rocket 4.5 19:22:35 10° SSE 19:28:05 34° E 19:29:03 32° ENE
Cosmos 2297 4.3 19:26:06 10° NNW 19:31:42 59° WSW 19:37:19 10° S
Cosmos 292 Rocket 3.9 19:30:42 10° S 19:35:12 46° ESE 19:35:12 46° ESE
Iridium 4 Rocket 2.9 19:31:44 10° S 19:36:13 68° E 19:38:16 29° NNE
Cosmos 1869 3.1 19:32:26 10° N 19:36:30 71° E 19:40:31 10° SSE
Cosmos 1461 4.1 19:35:10 10° WSW 19:39:04 37° NW 19:41:07 22° N
Sich 1 3.6 19:36:14 10° SSW 19:40:38 61° W 19:45:02 10° N
Cosmos 1092 Rocket 3.9 19:39:03 10° S 19:45:23 84° E 19:51:46 10° N
Cosmos 1633 Rocket 3.7 19:45:17 10° SSW 19:49:36 55° W 19:53:52 10° N
FENGYUN 3A 3.5 19:44:18 10° SSE 19:49:38 80° ENE 19:55:02 10° N
Cosmos 923 Rocket 3.8 19:44:32 10° S 19:49:44 75° ESE 19:50:56 53° NE
BREEZE-M DEB (TANK) 4.4 19:53:51 10° WNW 19:54:14 13° NW 19:54:14 13° NW
Cosmos 1680 Rocket 3.4 19:51:26 10° S 19:56:19 65° SE 19:56:19 65° SE
SL-19 R/B 4.4 19:51:42 10° SSE 19:57:36 77° WSW 20:03:13 10° NNW
Aureole 1 Rocket 4.1 19:55:06 10° SSW 20:00:29 70° WNW 20:07:39 10° NNE
Lacrosse 5 rocket 4.4 20:01:26 10° W 20:03:01 12° WSW 20:04:37 10° SW
ATLAS 5 CENTAUR R/B 4.0 20:02:58 10° NNW 20:05:21 19° N 20:05:21 19° N
Cosmos 2195 Rocket 4.3 20:03:29 10° S 20:09:35 85° E 20:13:16 26° N
NOSS 3-1 (C) 4.2 20:12:21 10° SSW 20:15:41 34° S 20:15:41 34° S
Cosmos 1603 4.0 20:18:26 10° SW 20:24:00 64° WNW 20:24:34 60° NNW
Cosmos 1943 Rocket 4.4 20:20:28 10° N 20:21:00 12° N 20:21:00 12° N
USA 215 3.6 20:24:58 40° SSE 20:27:16 61° SW 20:33:45 10° NW
Resurs 01 Rocket 2.8 20:26:51 38° WSW 20:27:28 40° W 20:31:41 10° NNW
Cosmos 1655 Rocket 4.2 20:32:08 10° S 20:37:30 63° SSW 20:37:30 63° SSW
CZ-4C R/B 4.3 20:32:43 10° NNW 20:35:48 22° N 20:35:48 22° N
Lacrosse 5 4.3 20:37:32 10° NNW 20:38:19 13° NNW 20:38:19 13° NNW
Lacrosse 4 Rocket 4.3 20:54:01 10° WNW 20:54:54 14° WNW 20:54:54 14° WNW
Cosmos 2369 Rocket 4.0 20:54:57 10° NNW 20:56:59 23° NNW 20:56:59 23° NNW
